Location: Unspecified
(0.0000°N, 0.0000°E)
Time: 17:03:40
(UTC+00:00)

deb Briz - Visible Passes

Search period start: 14 February 2026 00:00
Search period end: 24 February 2026 00:00
Orbit: 1862 x 2155 km, 64.9° (Epoch: 13 February)

Date Brightness Start Highest point End Pass type
(mag) Time Alt. Az. Time Alt. Az. Time Alt. Az.
14 Feb ? 21:28:14 10° S 21:34:15 36° S 21:34:15 36° S visible
15 Feb ? 20:49:19 10° S 20:56:22 35° SSE 20:56:22 35° SSE visible
15 Feb ? 23:01:34 10° SW 23:03:50 17° WSW 23:03:50 17° WSW visible
16 Feb ? 20:11:02 10° SSE 20:18:34 27° SE 20:18:34 27° SE visible
16 Feb ? 22:20:54 10° SW 22:26:02 30° SW 22:26:02 30° SW visible
17 Feb ? 19:33:49 10° SSE 19:40:50 18° ESE 19:40:50 18° ESE visible
17 Feb ? 21:40:49 10° SSW 21:48:19 47° SW 21:48:19 47° SW visible
18 Feb ? 21:01:13 10° SSW 21:10:41 62° S 21:10:41 62° S visible
18 Feb ? 23:17:50 10° WSW 23:18:11 11° WSW 23:18:11 11° WSW visible
19 Feb ? 20:22:04 10° S 20:33:09 53° ESE 20:33:09 53° ESE visible
19 Feb ? 22:35:34 10° WSW 22:40:40 23° W 22:40:40 23° W visible
20 Feb ? 19:43:27 10° S 19:54:00 36° ESE 19:55:45 35° E visible
20 Feb ? 21:54:30 10° SW 22:03:16 41° W 22:03:16 41° W visible
21 Feb ? 19:05:36 10° SSE 19:14:18 23° ESE 19:18:29 19° E visible
21 Feb ? 21:14:09 10° SSW 21:26:00 65° WNW 21:26:00 65° WNW visible
22 Feb ? 18:29:34 10° SE 18:34:30 13° ESE 18:39:27 10° E visible
22 Feb ? 20:34:19 10° SSW 20:46:24 90° ESE 20:48:55 65° NNE visible
22 Feb ? 22:53:21 10° W 22:56:28 13° WNW 22:56:28 13° WNW visible
23 Feb ? 19:54:57 10° S 20:06:48 64° ESE 20:12:01 39° NE visible
23 Feb ? 22:09:51 10° WSW 22:18:37 23° WNW 22:19:35 23° WNW visible
